Flag for Canada Weather past 2 weeks in Aklavik, Northwest Territories, Canada

Now
12 °F

Mostly cloudy.


Feels Like: 6 °F
Forecast: -2 / 16 °F
Wind: 3 mph from Southeast

Location: Inuvik

Current Time: Mar 4, 2015 at 1:05:53 AM

Latest Report: Mar 4, 2015 at 12:00 AM


Visibility: 15 mi

Pressure: 29.67 "Hg

Humidity: 52%

Dew point: -2 °F

Location of AklavikLocation

Historic Weather in Aklavik — Graph

°F

Aklavik temperature yesterday

Maximum temperature yesterday: 14 °F (at 4:00 PM)
Minimum temperature yesterday: 1 °F (at 12:00 AM)
Average temperature yesterday: 7 °F

Past Weeks' High & Low Weather Summary

 TemperatureHumidityPressure
High32 °F (Feb 27, 2:00 PM)93% (Feb 20, 12:00 PM)30.75 "Hg (Feb 20, 12:00 PM)
Low-15 °F (Mar 2, 5:00 AM)40% (Mar 3, 3:00 PM)29.67 "Hg (Feb 28, 11:00 PM)
Average10 °F74%30.17 "Hg
* Reported Midnight between Feb 16 and Feb 17 — Midnight between Mar 3 and Mar 4, Aklavik, Weather by CustomWeather, © 2015

Note: Actual official high and low records may vary slightly from our data, if they occured in-between our weather recording intervals... More about our weather records

Advertising

Aklavik weather history for previous 24 hours

 ConditionsComfort  
Time TempWeatherWind HumidityBarometerVisibility
12:00 AM
Wed, Mar 4
12 °FMostly cloudy.3 mph52%29.67 "Hg15 mi
11:00 PM
Tue, Mar 3
10 °FMostly cloudy.9 mph52%29.69 "Hg15 mi
10:00 PM9 °FPartly cloudy.10 mph51%29.70 "Hg15 mi
9:00 PM9 °FPartly sunny.12 mph51%29.73 "Hg15 mi
8:00 PM10 °FBroken clouds.9 mph47%29.76 "Hg15 mi
7:00 PM10 °FScattered clouds.12 mph47%29.78 "Hg15 mi
6:00 PM12 °FScattered clouds.10 mph44%29.80 "Hg15 mi
5:00 PM12 °FBroken clouds.13 mph44%29.83 "Hg15 mi
4:00 PM14 °FPartly sunny.14 mph41%29.87 "Hg15 mi
3:00 PM12 °FBroken clouds.13 mph40%29.91 "Hg15 mi
2:00 PM10 °FBroken clouds.12 mph44%29.94 "Hg15 mi
1:00 PM9 °FBroken clouds.15 mph47%29.99 "Hg15 mi
12:00 PM7 °FPartly sunny.13 mph51%30.01 "Hg15 mi
11:00 AM5 °FPassing clouds.13 mph51%30.06 "Hg15 mi
10:00 AM5 °FPassing clouds.10 mph51%30.08 "Hg15 mi
9:00 AM3 °FPassing clouds.12 mph50%30.11 "Hg15 mi
8:00 AM3 °FPassing clouds.10 mph50%30.14 "Hg15 mi
7:00 AM3 °FPassing clouds.8 mph50%30.16 "Hg15 mi
6:00 AM1 °FClear.12 mph55%30.18 "Hg15 mi
5:00 AM3 °FClear.13 mph50%30.21 "Hg15 mi
4:00 AM3 °FClear.12 mph50%30.24 "Hg15 mi
3:00 AM1 °FClear.9 mph55%30.26 "Hg15 mi
2:00 AM1 °FClear.12 mph55%30.29 "Hg15 mi
1:00 AM1 °FClear.12 mph55%30.31 "Hg15 mi
Weather by CustomWeather, © 2015

See weather overviewHow to use our weather pages